TimeEDT,TemperatureF,Dew PointF,Humidity,Sea Level PressureIn,VisibilityMPH,Wind Direction,Wind SpeedMPH,Gust SpeedMPH,PrecipitationIn,Events,Conditions,WindDirDegrees,DateUTC
12:15 AM,68.0,51.8,56,29.85,10.0,WSW,3.5,-,N/A,,Overcast,240,2014-04-13 04:15:00
12:35 AM,66.2,51.8,60,29.86,10.0,West,3.5,-,N/A,,Overcast,260,2014-04-13 04:35:00
12:55 AM,66.2,51.8,60,29.86,10.0,Calm,Calm,-,N/A,,Overcast,0,2014-04-13 04:55:00
1:15 AM,64.4,51.8,64,29.85,10.0,Calm,Calm,-,N/A,,Overcast,0,2014-04-13 05:15:00
1:35 AM,62.6,51.8,68,29.85,10.0,Calm,Calm,-,N/A,,Overcast,0,2014-04-13 05:35:00
1:55 AM,62.6,51.8,68,29.85,10.0,Calm,Calm,-,N/A,,Overcast,0,2014-04-13 05:55:00
2:15 AM,62.6,51.8,68,29.85,10.0,Calm,Calm,-,N/A,,Overcast,0,2014-04-13 06:15:00
2:35 AM,62.6,51.8,68,29.85,10.0,SE,3.5,-,N/A,,Overcast,140,2014-04-13 06:35:00
2:55 AM,62.6,51.8,68,29.85,10.0,South,3.5,-,N/A,,Overcast,170,2014-04-13 06:55:00
3:15 AM,62.6,51.8,68,29.84,10.0,SSE,5.8,-,N/A,,Mostly Cloudy,160,2014-04-13 07:15:00
3:35 AM,62.6,51.8,68,29.83,10.0,SSE,4.6,-,N/A,,Scattered Clouds,160,2014-04-13 07:35:00
3:55 AM,62.6,51.8,68,29.82,10.0,South,5.8,-,N/A,,Clear,170,2014-04-13 07:55:00
4:15 AM,62.6,50.0,63,29.82,10.0,South,5.8,-,N/A,,Clear,190,2014-04-13 08:15:00
4:35 AM,62.6,50.0,63,29.82,10.0,South,5.8,-,N/A,,Clear,190,2014-04-13 08:35:00
4:55 AM,62.6,50.0,63,29.82,10.0,South,4.6,-,N/A,,Mostly Cloudy,170,2014-04-13 08:55:00
5:15 AM,62.6,50.0,63,29.82,10.0,SE,4.6,-,N/A,,Overcast,130,2014-04-13 09:15:00
5:35 AM,55.4,48.2,77,29.82,10.0,ESE,5.8,-,N/A,,Overcast,110,2014-04-13 09:35:00
5:55 AM,55.4,46.4,72,29.82,10.0,Calm,Calm,-,N/A,,Overcast,0,2014-04-13 09:55:00
6:15 AM,53.6,46.4,77,29.81,10.0,SE,3.5,-,N/A,,Overcast,130,2014-04-13 10:15:00
6:35 AM,59.0,51.8,77,29.80,10.0,SSW,9.2,-,N/A,,Overcast,200,2014-04-13 10:35:00
6:55 AM,64.4,51.8,64,29.80,10.0,SSW,11.5,-,N/A,,Overcast,200,2014-04-13 10:55:00
7:15 AM,64.4,51.8,64,29.80,10.0,SSW,11.5,19.6,N/A,,Overcast,200,2014-04-13 11:15:00
7:35 AM,64.4,51.8,64,29.80,10.0,SSW,12.7,19.6,N/A,,Mostly Cloudy,200,2014-04-13 11:35:00
7:55 AM,64.4,51.8,64,29.81,10.0,SSW,11.5,17.3,N/A,,Clear,200,2014-04-13 11:55:00
8:15 AM,64.4,51.8,64,29.81,10.0,SSW,10.4,-,N/A,,Clear,200,2014-04-13 12:15:00
8:35 AM,66.2,51.8,60,29.80,10.0,South,12.7,20.7,N/A,,Clear,190,2014-04-13 12:35:00
8:55 AM,68.0,51.8,56,29.80,10.0,SSW,11.5,19.6,N/A,,Clear,210,2014-04-13 12:55:00
9:15 AM,68.0,51.8,56,29.80,10.0,South,13.8,20.7,N/A,,Clear,190,2014-04-13 13:15:00
9:35 AM,68.0,53.6,60,29.79,10.0,SSW,15.0,26.5,N/A,,Clear,210,2014-04-13 13:35:00
9:55 AM,68.0,53.6,60,29.79,10.0,SSW,10.4,23.0,N/A,,Clear,210,2014-04-13 13:55:00
10:15 AM,69.8,53.6,56,29.80,10.0,SSW,17.3,24.2,N/A,,Scattered Clouds,210,2014-04-13 14:15:00
10:35 AM,69.8,53.6,56,29.80,10.0,SW,15.0,25.3,N/A,,Mostly Cloudy,230,2014-04-13 14:35:00
10:55 AM,71.6,53.6,53,29.80,10.0,SW,15.0,21.9,N/A,,Mostly Cloudy,230,2014-04-13 14:55:00
11:35 AM,69.8,53.6,56,29.80,10.0,SW,19.6,26.5,N/A,,Overcast,220,2014-04-13 15:35:00
11:55 AM,71.6,55.4,57,29.80,10.0,SW,15.0,21.9,N/A,,Overcast,220,2014-04-13 15:55:00
12:15 PM,71.6,55.4,57,29.79,10.0,SW,10.4,24.2,N/A,,Overcast,220,2014-04-13 16:15:00
12:35 PM,73.4,55.4,53,29.79,10.0,SW,17.3,25.3,N/A,,Mostly Cloudy,230,2014-04-13 16:35:00
12:55 PM,75.2,55.4,50,29.78,10.0,SW,17.3,27.6,N/A,,Scattered Clouds,220,2014-04-13 16:55:00
1:15 PM,75.2,55.4,50,29.78,10.0,SSW,17.3,26.5,N/A,,Scattered Clouds,210,2014-04-13 17:15:00
1:35 PM,75.2,55.4,50,29.79,10.0,SW,13.8,25.3,N/A,,Mostly Cloudy,220,2014-04-13 17:35:00
1:55 PM,75.2,55.4,50,29.79,10.0,SSW,19.6,26.5,N/A,,Mostly Cloudy,210,2014-04-13 17:55:00
2:15 PM,75.2,55.4,50,29.80,10.0,SW,16.1,26.5,N/A,,Mostly Cloudy,230,2014-04-13 18:15:00
2:35 PM,75.2,55.4,50,29.78,10.0,SW,12.7,21.9,N/A,,Mostly Cloudy,220,2014-04-13 18:35:00
2:55 PM,77.0,55.4,47,29.78,10.0,SW,16.1,24.2,N/A,,Mostly Cloudy,230,2014-04-13 18:55:00
3:15 PM,75.2,55.4,50,29.78,10.0,SW,12.7,20.7,N/A,,Mostly Cloudy,230,2014-04-13 19:15:00
3:35 PM,77.0,55.4,47,29.78,10.0,WSW,15.0,27.6,N/A,,Mostly Cloudy,240,2014-04-13 19:35:00
3:55 PM,77.0,53.6,44,29.77,10.0,SW,12.7,21.9,N/A,,Scattered Clouds,220,2014-04-13 19:55:00
4:15 PM,75.2,53.6,47,29.77,10.0,WSW,12.7,24.2,N/A,,Scattered Clouds,240,2014-04-13 20:15:00
4:35 PM,77.0,55.4,47,29.77,10.0,SW,10.4,17.3,N/A,,Scattered Clouds,230,2014-04-13 20:35:00
4:55 PM,75.2,53.6,47,29.76,10.0,SSW,18.4,26.5,N/A,,Mostly Cloudy,210,2014-04-13 20:55:00
5:15 PM,75.2,53.6,47,29.76,10.0,SW,10.4,19.6,N/A,,Mostly Cloudy,220,2014-04-13 21:15:00
5:35 PM,77.0,51.8,41,29.76,10.0,WSW,10.4,25.3,N/A,,Scattered Clouds,240,2014-04-13 21:35:00
5:55 PM,77.0,51.8,41,29.75,10.0,SW,11.5,18.4,N/A,,Clear,220,2014-04-13 21:55:00
6:15 PM,77.0,51.8,41,29.75,10.0,SW,12.7,-,N/A,,Clear,230,2014-04-13 22:15:00
6:35 PM,75.2,51.8,44,29.75,10.0,SW,12.7,18.4,N/A,,Clear,230,2014-04-13 22:35:00
6:55 PM,75.2,51.8,44,29.74,10.0,SSW,10.4,16.1,N/A,,Clear,210,2014-04-13 22:55:00
7:15 PM,75.2,51.8,44,29.73,10.0,SW,9.2,-,N/A,,Clear,220,2014-04-13 23:15:00
7:35 PM,73.4,51.8,47,29.73,10.0,South,5.8,-,N/A,,Mostly Cloudy,170,2014-04-13 23:35:00
7:55 PM,73.4,51.8,47,29.73,10.0,SSW,6.9,-,N/A,,Mostly Cloudy,200,2014-04-13 23:55:00
8:15 PM,73.4,51.8,47,29.73,10.0,SSW,5.8,-,N/A,,Mostly Cloudy,200,2014-04-14 00:15:00
8:35 PM,73.4,51.8,47,29.71,10.0,South,3.5,-,N/A,,Scattered Clouds,190,2014-04-14 00:35:00
8:55 PM,71.6,51.8,50,29.71,10.0,South,3.5,-,N/A,,Clear,170,2014-04-14 00:55:00
9:15 PM,71.6,51.8,50,29.70,10.0,SSE,3.5,-,N/A,,Scattered Clouds,150,2014-04-14 01:15:00
9:35 PM,71.6,51.8,50,29.70,10.0,SSE,3.5,-,N/A,,Mostly Cloudy,150,2014-04-14 01:35:00
9:55 PM,71.6,53.6,53,29.70,10.0,South,5.8,-,N/A,,Mostly Cloudy,170,2014-04-14 01:55:00
10:15 PM,71.6,53.6,53,29.69,10.0,SSE,5.8,-,N/A,,Scattered Clouds,160,2014-04-14 02:15:00
10:35 PM,71.6,51.8,50,29.69,10.0,South,8.1,-,N/A,,Scattered Clouds,170,2014-04-14 02:35:00
10:55 PM,71.6,51.8,50,29.68,10.0,South,8.1,-,N/A,,Scattered Clouds,170,2014-04-14 02:55:00
11:15 PM,71.6,50.0,46,29.68,10.0,South,11.5,-,N/A,,Mostly Cloudy,190,2014-04-14 03:15:00
11:35 PM,71.6,48.2,43,29.67,10.0,SSW,10.4,16.1,N/A,,Mostly Cloudy,200,2014-04-14 03:35:00
11:55 PM,71.6,46.4,41,29.66,10.0,South,8.1,17.3,N/A,,Scattered Clouds,190,2014-04-14 03:55:00